| time (UTC) | temp C | wind direction | speed KPH | gust KPH | rain 1hr cm | rain 24hr cm | rain mn cm | humidity % | barometer mb |
| 20260506132049 | 1 | 112 | 12.9 | 29.0 | 0.00 | 0.00 | 0.00 | 93 | 853.0 |
| 20260506131548 | 1 | 112 | 6.4 | 9.7 | 0.00 | 0.00 | 0.00 | 93 | 848.3 |
| 20260506131048 | 1 | 112 | 3.2 | 6.4 | 0.00 | 0.00 | 0.00 | 92 | 848.6 |
| 20260506130548 | 1 | 112 | 6.4 | 12.9 | 0.00 | 0.00 | 0.00 | 92 | 848.1 |
| 20260506130048 | 2 | 135 | 8.0 | 19.3 | 0.00 | 0.00 | 0.00 | 92 | 849.2 |
| 20260506125548 | 3 | 112 | 0.0 | 11.3 | 0.00 | 0.00 | 0.00 | 93 | 850.2 |
| 20260506125048 | 3 | 112 | 0.0 | 3.2 | 0.00 | 0.00 | 0.00 | 93 | 848.0 |
| 20260506124549 | 3 | 45 | 0.0 | 32.2 | 0.00 | 0.00 | 0.00 | 93 | 847.9 |
| 20260506124049 | 3 | 292 | 32.2 | 46.7 | 0.00 | 0.00 | 0.00 | 93 | 847.4 |
| 20260506123548 | 3 | 270 | 0.0 | 22.5 | 0.00 | 0.00 | 0.00 | 93 | 848.2 |
| 20260506123048 | 3 | 315 | 17.7 | 19.3 | 0.00 | 0.00 | 0.00 | 93 | 849.4 |
| 20260506122548 | 3 | 315 | 16.1 | 20.9 | 0.00 | 0.00 | 0.00 | 93 | 849.6 |
| 20260506122048 | 3 | 315 | 20.9 | 20.9 | 0.00 | 0.00 | 0.00 | 93 | 849.0 |
| 20260506121548 | 3 | 315 | 0.0 | 12.9 | 0.00 | 0.00 | 0.00 | 93 | 847.6 |
| 20260506121048 | 3 | 315 | 12.9 | 20.9 | 0.00 | 0.00 | 0.00 | 93 | 847.6 |
| 20260506120548 | 3 | 315 | 20.9 | 20.9 | 0.00 | 0.00 | 0.00 | 93 | 848.1 |
| 20260506120048 | 3 | 0 | 0.0 | 12.9 | 0.00 | 0.00 | 0.00 | 93 | 847.7 |
| 20260506115548 | 3 | 292 | 6.4 | 19.3 | 0.00 | 0.00 | 0.00 | 93 | 847.1 |
| 20260506115048 | 3 | 315 | 14.5 | 91.7 | 0.00 | 0.00 | 0.00 | 93 | 847.4 |
| 20260506114548 | 4 | 270 | 0.0 | 16.1 | 0.00 | 0.00 | 0.00 | 93 | 847.2 |
| 20260506114048 | 4 | 292 | 12.9 | 19.3 | 0.00 | 0.00 | 0.00 | 93 | 847.2 |
| 20260506113549 | 5 | 337 | 14.5 | 16.1 | 0.00 | 0.00 | 0.00 | 93 | 847.1 |
| 20260506113048 | 5 | 315 | 9.7 | 144.8 | 0.00 | 0.00 | 0.00 | 93 | 846.8 |
| 20260506112548 | 5 | 292 | 3.2 | 12.9 | 0.00 | 0.00 | 0.00 | 93 | 846.9 |
| 20260506112048 | 4 | 315 | 8.0 | 146.5 | 0.00 | 0.00 | 0.00 | 93 | 846.9 |
| 20260506111549 | 3 | 315 | 9.7 | 25.7 | 0.00 | 0.00 | 0.00 | 94 | 846.7 |
| 20260506111049 | 3 | 292 | 3.2 | 16.1 | 0.00 | 0.00 | 0.00 | 93 | 846.8 |
| 20260506110548 | 3 | 315 | 8.0 | 20.9 | 0.00 | 0.00 | 0.00 | 93 | 846.9 |
| 20260506110048 | 2 | 270 | 0.0 | 30.6 | 0.00 | 0.00 | 0.00 | 93 | 847.1 |
| 20260506105548 | 2 | 292 | 14.5 | 29.0 | 0.00 | 0.00 | 0.00 | 93 | 847.0 |
| 20260506105048 | 2 | 337 | 6.4 | 11.3 | 0.00 | 0.00 | 0.00 | 93 | 847.1 |
| 20260506104548 | 2 | 315 | 22.5 | 22.5 | 0.00 | 0.00 | 0.00 | 93 | 847.2 |
| 20260506104048 | 2 | 337 | 1.6 | 32.2 | 0.00 | 0.00 | 0.00 | 93 | 847.2 |
| 20260506103549 | 2 | 315 | 6.4 | 16.1 | 0.00 | 0.00 | 0.00 | 93 | 847.8 |
| 20260506103048 | 2 | 315 | 11.3 | 16.1 | 0.00 | 0.00 | 0.00 | 93 | 847.3 |
| 20260506102548 | 2 | 292 | 9.7 | 19.3 | 0.00 | 0.00 | 0.00 | 93 | 847.7 |
| 20260506102048 | 2 | 315 | 6.4 | 20.9 | 0.00 | 0.00 | 0.00 | 93 | 851.1 |
| 20260506101548 | 2 | 315 | 9.7 | 25.7 | 0.00 | 0.00 | 0.00 | 93 | 849.0 |
| 20260506101049 | 2 | 315 | 20.9 | 27.4 | 0.00 | 0.00 | 0.00 | 93 | 849.5 |
| 20260506100548 | 2 | 315 | 16.1 | 25.7 | 0.00 | 0.00 | 0.00 | 93 | 847.1 |
| 20260506100048 | 2 | 315 | 25.7 | 30.6 | 0.00 | 0.00 | 0.00 | 93 | 850.1 |
| 20260506095548 | 2 | 315 | 20.9 | 30.6 | 0.00 | 0.00 | 0.00 | 93 | 847.4 |
| 20260506095048 | 2 | 337 | 12.9 | 27.4 | 0.00 | 0.00 | 0.00 | 93 | 850.0 |
| 20260506094548 | 3 | 292 | 27.4 | 30.6 | 0.00 | 0.00 | 0.00 | 93 | 851.1 |
| 20260506094048 | 3 | 292 | 8.0 | 20.9 | 0.00 | 0.00 | 0.00 | 93 | 847.3 |
| 20260506093548 | 2 | 292 | 17.7 | 25.7 | 0.00 | 0.00 | 0.00 | 93 | 847.8 |
| 20260506093048 | 2 | 292 | 16.1 | 25.7 | 0.00 | 0.00 | 0.00 | 93 | 847.2 |
| 20260506092548 | 2 | 270 | 0.0 | 20.9 | 0.00 | 0.00 | 0.00 | 93 | 847.2 |
| 20260506092048 | 2 | 315 | 11.3 | 22.5 | 0.00 | 0.00 | 0.00 | 93 | 847.3 |
| 20260506091548 | 2 | 315 | 12.9 | 24.1 | 0.00 | 0.00 | 0.00 | 93 | 847.2 |
| 20260506091048 | 2 | 315 | 16.1 | 25.7 | 0.00 | 0.00 | 0.00 | 93 | 847.2 |
| 20260506090548 | 2 | 337 | 16.1 | 25.7 | 0.00 | 0.00 | 0.00 | 93 | 846.8 |
| 20260506090048 | 2 | 315 | 20.9 | 170.6 | 0.00 | 0.00 | 0.00 | 93 | 846.8 |
| 20260506085548 | 2 | 315 | 4.8 | 17.7 | 0.00 | 0.00 | 0.00 | 93 | 846.8 |
| 20260506085049 | 2 | 315 | 14.5 | 20.9 | 0.00 | 0.00 | 0.00 | 93 | 847.3 |
| 20260506084548 | 1 | 292 | 11.3 | 64.4 | 0.00 | 0.00 | 0.00 | 93 | 846.8 |
| 20260506084048 | 1 | 292 | 22.5 | 22.5 | 0.00 | 0.00 | 0.00 | 93 | 846.7 |
| 20260506083548 | 1 | 315 | 14.5 | 24.1 | 0.00 | 0.00 | 0.00 | 93 | 846.5 |
| 20260506083048 | 1 | 315 | 20.9 | 175.4 | 0.00 | 0.00 | 0.00 | 93 | 847.0 |
| 20260506082549 | 1 | 292 | 19.3 | 24.1 | 0.00 | 0.00 | 0.00 | 93 | 847.1 |
| 20260506082048 | 1 | 315 | 12.9 | 22.5 | 0.00 | 0.00 | 0.00 | 94 | 846.6 |
| 20260506081548 | 1 | 315 | 16.1 | 19.3 | 0.00 | 0.00 | 0.00 | 94 | 846.7 |
| 20260506081048 | 1 | 0 | 0.0 | 149.7 | 0.00 | 0.00 | 0.00 | 93 | 847.7 |
| 20260506080548 | 1 | 315 | 16.1 | 22.5 | 0.00 | 0.00 | 0.00 | 93 | 847.9 |
| 20260506073049 | 0 | 292 | 3.2 | 17.7 | 0.00 | 0.00 | 0.00 | 93 | 849.5 |
| 20260506072549 | 1 | 315 | 4.8 | 6.4 | 0.00 | 0.00 | 0.00 | 93 | 850.0 |
| 20260506072050 | 1 | 292 | 6.4 | 8.0 | 0.00 | 0.00 | 0.00 | 93 | 850.7 |
| 20260506071549 | 1 | 292 | 6.4 | 16.1 | 0.00 | 0.00 | 0.00 | 93 | 850.9 |
| 20260506071049 | 1 | 292 | 6.4 | 8.0 | 0.00 | 0.00 | 0.00 | 93 | 851.1 |
| 20260506070550 | 1 | 292 | 4.8 | 6.4 | 0.00 | 0.00 | 0.00 | 93 | 850.0 |
| 20260506062049 | 1 | 292 | 6.4 | 9.7 | 0.00 | 0.00 | 0.00 | 94 | 848.0 |
| 20260506061549 | 1 | 292 | 8.0 | 11.3 | 0.00 | 0.00 | 0.00 | 94 | 847.9 |
| 20260506061050 | 1 | 292 | 11.3 | 12.9 | 0.00 | 0.00 | 0.00 | 94 | 847.7 |
| 20260506060549 | 1 | 292 | 12.9 | 95.0 | 0.00 | 0.00 | 0.00 | 94 | 847.5 |
| 20260506051049 | 1 | 292 | 14.5 | 16.1 | 0.00 | 0.00 | 0.00 | 94 | 847.5 |
| 20260506050549 | 1 | 315 | 9.7 | 16.1 | 0.00 | 0.00 | 0.00 | 94 | 847.3 |
| 20260506045049 | 1 | 292 | 12.9 | 12.9 | 0.00 | 0.00 | 0.00 | 94 | 847.8 |
| 20260506044549 | 1 | 292 | 11.3 | 12.9 | 0.00 | 0.00 | 0.00 | 94 | 847.7 |
| 20260506044049 | 1 | 292 | 12.9 | 12.9 | 0.00 | 0.00 | 0.00 | 94 | 848.1 |
| 20260506043549 | 1 | 315 | 9.7 | 14.5 | 0.00 | 0.00 | 0.00 | 94 | 848.3 |
| 20260506043049 | 1 | 292 | 11.3 | 12.9 | 0.00 | 0.00 | 0.00 | 94 | 848.6 |
| 20260506042549 | 1 | 292 | 9.7 | 12.9 | 0.00 | 0.00 | 0.00 | 94 | 848.4 |
| 20260506042050 | 1 | 292 | 4.8 | 14.5 | 0.00 | 0.00 | 0.00 | 94 | 848.7 |
| 20260506041549 | 1 | 315 | 11.3 | 16.1 | 0.00 | 0.00 | 0.00 | 94 | 849.2 |
| 20260506041049 | 1 | 292 | 9.7 | 17.7 | 0.00 | 0.00 | 0.00 | 93 | 849.0 |
| 20260506040549 | 1 | 292 | 4.8 | 19.3 | 0.00 | 0.00 | 0.00 | 93 | 849.9 |
| 20260506040049 | 1 | 315 | 8.0 | 20.9 | 0.00 | 0.00 | 0.00 | 93 | 849.8 |
| 20260506035550 | 1 | 292 | 12.9 | 20.9 | 0.00 | 0.00 | 0.00 | 93 | 849.4 |
| 20260506035049 | 1 | 292 | 20.9 | 20.9 | 0.00 | 0.00 | 0.00 | 93 | 849.0 |
| 20260506034550 | 1 | 292 | 17.7 | 19.3 | 0.00 | 0.00 | 0.00 | 93 | 848.7 |
| 20260506034049 | 1 | 292 | 11.3 | 16.1 | 0.00 | 0.00 | 0.00 | 93 | 848.7 |
| 20260506033549 | 1 | 292 | 16.1 | 16.1 | 0.00 | 0.00 | 0.00 | 93 | 849.0 |
| 20260506033049 | 1 | 292 | 11.3 | 16.1 | 0.00 | 0.00 | 0.00 | 93 | 849.4 |
| 20260506032549 | 1 | 315 | 16.1 | 17.7 | 0.00 | 0.00 | 0.00 | 93 | 849.2 |
| 20260506032050 | 1 | 292 | 9.7 | 12.9 | 0.00 | 0.00 | 0.00 | 93 | 849.0 |
| 20260506031549 | 1 | 315 | 9.7 | 14.5 | 0.00 | 0.00 | 0.00 | 93 | 849.4 |
| 20260506031049 | 1 | 315 | 9.7 | 16.1 | 0.00 | 0.00 | 0.00 | 93 | 849.2 |
| 20260506030549 | 1 | 292 | 14.5 | 17.7 | 0.00 | 0.00 | 0.00 | 93 | 848.2 |
| 20260506030049 | 1 | 315 | 12.9 | 14.5 | 0.00 | 0.00 | 0.00 | 93 | 848.2 |
| 20260506025549 | 1 | 315 | 9.7 | 12.9 | 0.00 | 0.00 | 0.00 | 93 | 848.4 |
| 20260506025049 | 1 | 315 | 3.2 | 9.7 | 0.00 | 0.00 | 0.00 | 93 | 848.2 |
| 20260506024549 | 1 | 315 | 3.2 | 11.3 | 0.00 | 0.00 | 0.00 | 93 | 848.3 |
| 20260506024049 | 1 | 292 | 9.7 | 12.9 | 0.00 | 0.00 | 0.00 | 93 | 848.3 |
| 20260506023550 | 1 | 292 | 12.9 | 12.9 | 0.00 | 0.00 | 0.00 | 93 | 848.6 |
| 20260506023049 | 1 | 315 | 11.3 | 86.9 | 0.00 | 0.00 | 0.00 | 93 | 848.6 |
| 20260506022549 | 1 | 292 | 17.7 | 96.6 | 0.00 | 0.00 | 0.00 | 93 | 848.8 |
| 20260506022050 | 1 | 315 | 9.7 | 14.5 | 0.00 | 0.00 | 0.00 | 93 | 848.9 |
| 20260506021550 | 1 | 315 | 8.0 | 12.9 | 0.00 | 0.00 | 0.00 | 93 | 848.6 |
| 20260506021050 | 1 | 315 | 6.4 | 9.7 | 0.00 | 0.00 | 0.00 | 93 | 848.8 |
| 20260506020550 | 1 | 315 | 8.0 | 8.0 | 0.00 | 0.00 | 0.00 | 93 | 848.8 |
| 20260506020049 | 1 | 315 | 4.8 | 9.7 | 0.00 | 0.00 | 0.00 | 93 | 848.7 |
| 20260506015549 | 1 | 315 | 9.7 | 135.2 | 0.00 | 0.00 | 0.00 | 93 | 848.8 |
| 20260506015049 | 1 | 315 | 9.7 | 162.5 | 0.00 | 0.00 | 0.00 | 93 | 849.1 |
| 20260506014549 | 1 | 315 | 12.9 | 14.5 | 0.00 | 0.00 | 0.00 | 93 | 848.9 |
| 20260506014050 | 1 | 337 | 12.9 | 160.9 | 0.00 | 0.00 | 0.00 | 93 | 849.0 |
| 20260506013549 | 1 | 315 | 11.3 | 16.1 | 0.00 | 0.00 | 0.00 | 93 | 849.0 |
| 20260506013049 | 1 | 292 | 9.7 | 11.3 | 0.00 | 0.00 | 0.00 | 93 | 849.1 |
| 20260506012549 | 1 | 315 | 0.0 | 12.9 | 0.00 | 0.00 | 0.00 | 93 | 849.2 |
| 20260506012049 | 1 | 315 | 9.7 | 12.9 | 0.00 | 0.00 | 0.00 | 93 | 849.1 |
| 20260506011550 | 2 | 45 | 0.0 | 9.7 | 0.00 | 0.00 | 0.00 | 93 | 849.1 |
| 20260506011049 | 2 | 90 | 4.8 | 11.3 | 0.00 | 0.00 | 0.00 | 93 | 849.1 |
| 20260506010549 | 2 | 22 | 3.2 | 11.3 | 0.00 | 0.00 | 0.00 | 93 | 849.0 |
| 20260506010049 | 2 | 315 | 1.6 | 17.7 | 0.00 | 0.00 | 0.00 | 93 | 849.0 |
| 20260506005550 | 2 | 315 | 6.4 | 16.1 | 0.00 | 0.00 | 0.00 | 93 | 849.1 |
| 20260506005050 | 2 | 315 | 0.0 | 77.2 | 0.00 | 0.00 | 0.00 | 93 | 849.2 |
| 20260506004549 | 2 | 315 | 3.2 | 46.7 | 0.00 | 0.00 | 0.00 | 93 | 849.2 |
| 20260506004049 | 2 | 315 | 1.6 | 101.4 | 0.00 | 0.00 | 0.00 | 93 | 849.3 |
| 20260506003549 | 2 | 315 | 4.8 | 104.6 | 0.00 | 0.00 | 0.00 | 93 | 849.2 |
| 20260506003049 | 2 | 315 | 9.7 | 159.3 | 0.00 | 0.00 | 0.00 | 93 | 849.2 |
| 20260506002550 | 2 | 315 | 1.6 | 14.5 | 0.00 | 0.00 | 0.00 | 93 | 849.1 |
| 20260506002050 | 2 | 315 | 6.4 | 162.5 | 0.00 | 0.00 | 0.00 | 93 | 849.3 |
| 20260506001550 | 2 | 315 | 6.4 | 107.8 | 0.00 | 0.00 | 0.00 | 93 | 849.2 |
| 20260506001050 | 2 | 315 | 4.8 | 48.3 | 0.00 | 0.00 | 0.00 | 93 | 849.2 |
| 20260506000550 | 2 | 22 | 48.3 | 48.3 | 0.00 | 0.00 | 0.00 | 93 | 849.2 |
| 20260506000050 | 2 | 315 | 11.3 | 11.3 | 0.00 | 0.00 | 0.00 | 93 | 849.2 |
| 20260505235550 | 2 | 315 | 9.7 | 16.1 | 0.00 | 0.00 | 0.00 | 93 | 849.2 |
| 20260505235050 | 2 | 315 | 12.9 | 16.1 | 0.00 | 0.00 | 0.00 | 93 | 849.1 |
| 20260505234550 | 2 | 315 | 11.3 | 16.1 | 0.00 | 0.00 | 0.00 | 93 | 849.1 |
| 20260505234050 | 2 | 292 | 0.0 | 16.1 | 0.00 | 0.00 | 0.00 | 93 | 849.1 |
| 20260505233550 | 2 | 337 | 11.3 | 12.9 | 0.00 | 0.00 | 0.00 | 93 | 849.1 |
| 20260505233050 | 2 | 337 | 9.7 | 20.9 | 0.00 | 0.00 | 0.00 | 93 | 849.2 |
| 20260505232550 | 2 | 22 | 6.4 | 16.1 | 0.00 | 0.00 | 0.00 | 93 | 849.2 |
| 20260505232050 | 2 | 22 | 4.8 | 9.7 | 0.00 | 0.00 | 0.00 | 93 | 849.2 |
| 20260505231550 | 2 | 45 | 1.6 | 14.5 | 0.00 | 0.00 | 0.00 | 93 | 849.4 |
| 20260505231050 | 2 | 90 | 6.4 | 16.1 | 0.00 | 0.00 | 0.00 | 93 | 849.3 |
| 20260505230551 | 2 | 0 | 8.0 | 12.9 | 0.00 | 0.00 | 0.00 | 93 | 849.3 |
| 20260505230050 | 2 | 0 | 9.7 | 16.1 | 0.00 | 0.00 | 0.00 | 93 | 849.3 |
| 20260505225550 | 2 | 337 | 16.1 | 24.1 | 0.00 | 0.00 | 0.00 | 93 | 849.2 |
| 20260505225052 | 2 | 315 | 12.9 | 96.6 | 0.00 | 0.00 | 0.00 | 93 | 849.3 |
| 20260505224550 | 2 | 315 | 1.6 | 164.2 | 0.00 | 0.00 | 0.00 | 93 | 849.8 |
| 20260505224051 | 2 | 315 | 9.7 | 27.4 | 0.00 | 0.00 | 0.00 | 93 | 849.9 |
| 20260505223551 | 2 | 315 | 11.3 | 11.3 | 0.00 | 0.00 | 0.00 | 93 | 849.9 |
| 20260505223050 | 2 | 0 | 0.0 | 8.0 | 0.00 | 0.00 | 0.00 | 93 | 850.1 |
| 20260505222550 | 2 | 45 | 1.6 | 109.4 | 0.00 | 0.00 | 0.00 | 93 | 850.0 |
| 20260505222050 | 2 | 135 | 109.4 | 136.8 | 0.00 | 0.00 | 0.00 | 93 | 849.9 |
| 20260505221550 | 1 | 22 | 8.0 | 101.4 | 0.00 | 0.00 | 0.00 | 93 | 850.0 |
| 20260505221050 | 1 | 0 | 8.0 | 11.3 | 0.00 | 0.00 | 0.00 | 93 | 849.8 |
| 20260505220656 | 2 | 45 | 8.0 | 11.3 | 0.00 | 0.00 | 0.00 | 93 | 850.0 |
| 20260505220550 | 2 | 45 | 8.0 | 11.3 | 0.00 | 0.00 | 0.00 | 93 | 850.0 |
| 20260505220050 | 2 | 315 | 1.6 | 16.1 | 0.00 | 0.00 | 0.00 | 93 | 849.9 |
| 20260505215550 | 2 | 22 | 8.0 | 20.9 | 0.00 | 0.00 | 0.00 | 93 | 849.9 |
| 20260505215052 | 2 | 67 | 16.1 | 20.9 | 0.00 | 0.00 | 0.00 | 93 | 849.8 |
| 20260505214550 | 2 | 67 | 20.9 | 22.5 | 0.00 | 0.00 | 0.00 | 93 | 849.8 |
| 20260505214050 | 2 | 67 | 9.7 | 11.3 | 0.00 | 0.00 | 0.00 | 93 | 849.9 |
| 20260505213550 | 2 | 45 | 6.4 | 16.1 | 0.00 | 0.00 | 0.00 | 93 | 850.0 |
| 20260505213050 | 2 | 22 | 9.7 | 156.1 | 0.00 | 0.00 | 0.00 | 93 | 850.0 |
| 20260505212551 | 2 | 0 | 0.0 | 167.4 | 0.00 | 0.00 | 0.00 | 93 | 850.0 |
| 20260505212050 | 2 | 315 | 162.5 | 162.5 | 0.00 | 0.00 | 0.00 | 93 | 850.2 |
| 20260505211550 | 2 | 22 | 9.7 | 152.9 | 0.00 | 0.00 | 0.00 | 93 | 850.2 |
| 20260505211050 | 2 | 337 | 12.9 | 112.7 | 0.00 | 0.00 | 0.00 | 93 | 850.0 |
| 20260505210550 | 2 | 315 | 11.3 | 14.5 | 0.00 | 0.00 | 0.00 | 93 | 850.3 |
| 20260505210050 | 2 | 0 | 0.0 | 9.7 | 0.00 | 0.00 | 0.00 | 93 | 850.3 |
| 20260505205550 | 2 | 315 | 1.6 | 22.5 | 0.00 | 0.00 | 0.00 | 93 | 850.3 |
| 20260505205050 | 2 | 0 | 0.0 | 11.3 | 0.00 | 0.00 | 0.00 | 93 | 850.5 |
| 20260505204550 | 2 | 45 | 4.8 | 14.5 | 0.00 | 0.00 | 0.00 | 93 | 850.6 |
| 20260505204050 | 2 | 0 | 8.0 | 14.5 | 0.00 | 0.00 | 0.00 | 93 | 850.5 |
| 20260505203550 | 2 | 67 | 12.9 | 19.3 | 0.00 | 0.00 | 0.00 | 93 | 850.8 |
| 20260505203050 | 2 | 45 | 8.0 | 11.3 | 0.00 | 0.00 | 0.00 | 93 | 850.8 |
| 20260505202550 | 2 | 0 | 6.4 | 16.1 | 0.00 | 0.00 | 0.00 | 93 | 850.9 |
| 20260505202050 | 2 | 90 | 1.6 | 12.9 | 0.00 | 0.00 | 0.00 | 93 | 850.9 |
| 20260505201550 | 2 | 337 | 12.9 | 16.1 | 0.00 | 0.00 | 0.00 | 93 | 851.1 |
| 20260505201050 | 2 | 315 | 11.3 | 24.1 | 0.00 | 0.00 | 0.00 | 93 | 851.0 |
| 20260505200550 | 2 | 315 | 8.0 | 17.7 | 0.00 | 0.00 | 0.00 | 93 | 851.0 |
| 20260505200050 | 2 | 315 | 1.6 | 19.3 | 0.00 | 0.00 | 0.00 | 93 | 851.0 |
| 20260505195551 | 2 | 337 | 4.8 | 16.1 | 0.00 | 0.00 | 0.00 | 93 | 850.9 |
| 20260505195050 | 2 | 315 | 3.2 | 16.1 | 0.00 | 0.00 | 0.00 | 93 | 850.7 |
| 20260505194550 | 2 | 337 | 9.7 | 12.9 | 0.00 | 0.00 | 0.00 | 93 | 850.6 |
| 20260505194050 | 3 | 45 | 6.4 | 9.7 | 0.00 | 0.00 | 0.00 | 93 | 850.9 |
| 20260505193550 | 3 | 67 | 0.0 | 3.2 | 0.00 | 0.00 | 0.00 | 93 | 850.7 |
| 20260505193050 | 3 | 22 | 0.0 | 8.0 | 0.00 | 0.00 | 0.00 | 93 | 850.9 |
| 20260505192550 | 3 | 45 | 1.6 | 9.7 | 0.00 | 0.00 | 0.00 | 93 | 851.0 |
| 20260505192050 | 3 | 112 | 0.0 | 9.7 | 0.00 | 0.00 | 0.00 | 93 | 851.1 |
| 20260505191550 | 3 | 112 | 0.0 | 11.3 | 0.00 | 0.00 | 0.00 | 93 | 851.2 |
| 20260505191050 | 3 | 22 | 8.0 | 14.5 | 0.00 | 0.00 | 0.00 | 93 | 851.2 |
| 20260505190550 | 3 | 337 | 9.7 | 11.3 | 0.00 | 0.00 | 0.00 | 93 | 850.3 |
| 20260505190051 | 3 | 22 | 6.4 | 6.4 | 0.00 | 0.00 | 0.00 | 93 | 850.1 |
| 20260505185625 | 3 | 112 | 0.0 | 1.6 | 0.00 | 0.00 | 0.00 | 93 | 850.1 |
| 20260505185550 | 3 | 112 | 0.0 | 1.6 | 0.00 | 0.00 | 0.00 | 93 | 850.1 |
| 20260505185051 | 3 | 22 | 0.0 | 4.8 | 0.00 | 0.00 | 0.00 | 93 | 850.2 |
| 20260505184550 | 3 | 112 | 0.0 | 3.2 | 0.00 | 0.00 | 0.00 | 93 | 850.2 |
| 20260505184050 | 3 | 22 | 0.0 | 9.7 | 0.00 | 0.00 | 0.00 | 93 | 850.1 |
| 20260505183551 | 3 | 67 | 0.0 | 4.8 | 0.00 | 0.00 | 0.00 | 93 | 850.2 |
| 20260505183050 | 2 | 90 | 0.0 | 11.3 | 0.00 | 0.00 | 0.00 | 93 | 850.0 |
| 20260505182550 | 3 | 0 | 0.0 | 11.3 | 0.00 | 0.00 | 0.00 | 93 | 850.0 |
| 20260505182050 | 3 | 45 | 4.8 | 20.9 | 0.00 | 0.00 | 0.00 | 93 | 849.9 |
| 20260505181550 | 3 | 315 | 4.8 | 16.1 | 0.00 | 0.00 | 0.00 | 93 | 849.7 |
| 20260505181050 | 3 | 315 | 9.7 | 24.1 | 0.00 | 0.00 | 0.00 | 93 | 849.8 |
| 20260505180550 | 3 | 22 | 11.3 | 24.1 | 0.00 | 0.00 | 0.00 | 93 | 850.1 |
| 20260505180051 | 2 | 292 | 9.7 | 16.1 | 0.00 | 0.00 | 0.00 | 93 | 850.0 |
| 20260505175550 | 2 | 315 | 8.0 | 16.1 | 0.00 | 0.00 | 0.00 | 93 | 849.6 |
| 20260505175050 | 2 | 315 | 8.0 | 20.9 | 0.00 | 0.00 | 0.00 | 93 | 849.6 |
| 20260505174550 | 2 | 292 | 1.6 | 9.7 | 0.00 | 0.00 | 0.00 | 93 | 849.6 |
| 20260505174051 | 2 | 315 | 0.0 | 8.0 | 0.00 | 0.00 | 0.00 | 93 | 849.7 |
| 20260505173550 | 2 | 315 | 1.6 | 6.4 | 0.00 | 0.00 | 0.00 | 93 | 849.6 |
| 20260505173050 | 2 | 315 | 8.0 | 16.1 | 0.00 | 0.00 | 0.00 | 92 | 849.8 |
| 20260505172550 | 2 | 315 | 1.6 | 9.7 | 0.00 | 0.00 | 0.00 | 92 | 850.0 |
| 20260505172050 | 2 | 315 | 4.8 | 11.3 | 0.00 | 0.00 | 0.00 | 92 | 850.0 |
| 20260505171551 | 2 | 315 | 9.7 | 11.3 | 0.00 | 0.00 | 0.00 | 92 | 850.2 |
| 20260505171050 | 2 | 315 | 8.0 | 11.3 | 0.00 | 0.00 | 0.00 | 92 | 850.3 |
| 20260505170550 | 2 | 315 | 9.7 | 14.5 | 0.00 | 0.00 | 0.00 | 92 | 850.4 |
| 20260505170051 | 2 | 315 | 9.7 | 14.5 | 0.00 | 0.00 | 0.00 | 92 | 850.4 |
| 20260505165550 | 2 | 292 | 14.5 | 14.5 | 0.00 | 0.00 | 0.00 | 92 | 850.8 |
| 20260505165052 | 2 | 22 | 0.0 | 43.5 | 0.00 | 0.00 | 0.00 | 92 | 851.5 |
| 20260505164550 | 2 | 315 | 12.9 | 12.9 | 0.00 | 0.00 | 0.00 | 92 | 851.5 |
| 20260505164051 | 2 | 315 | 9.7 | 12.9 | 0.00 | 0.00 | 0.00 | 92 | 850.5 |
| 20260505163551 | 3 | 292 | 9.7 | 12.9 | 0.00 | 0.00 | 0.00 | 92 | 850.3 |
| 20260505163051 | 3 | 292 | 9.7 | 12.9 | 0.00 | 0.00 | 0.00 | 92 | 849.9 |
| 20260505162551 | 3 | 292 | 11.3 | 12.9 | 0.00 | 0.00 | 0.00 | 92 | 850.0 |
| 20260505162051 | 3 | 315 | 9.7 | 12.9 | 0.00 | 0.00 | 0.00 | 91 | 849.9 |
| 20260505161551 | 3 | 292 | 12.9 | 16.1 | 0.00 | 0.00 | 0.00 | 91 | 849.9 |
| 20260505161051 | 3 | 292 | 9.7 | 16.1 | 0.00 | 0.00 | 0.00 | 91 | 849.8 |
| 20260505160551 | 3 | 292 | 3.2 | 14.5 | 0.00 | 0.00 | 0.00 | 91 | 850.1 |
| 20260505153051 | 3 | 315 | 9.7 | 14.5 | 0.00 | 0.00 | 0.00 | 92 | 850.6 |
| 20260505152551 | 2 | 292 | 9.7 | 14.5 | 0.00 | 0.00 | 0.00 | 92 | 851.2 |
| 20260505152051 | 2 | 292 | 11.3 | 17.7 | 0.00 | 0.00 | 0.00 | 92 | 851.4 |
| 20260505151551 | 2 | 292 | 14.5 | 16.1 | 0.00 | 0.00 | 0.00 | 92 | 851.4 |
| 20260505151051 | 2 | 292 | 12.9 | 12.9 | 0.00 | 0.00 | 0.00 | 92 | 851.0 |
| 20260505150551 | 2 | 292 | 9.7 | 14.5 | 0.00 | 0.00 | 0.00 | 92 | 850.8 |
| 20260505140551 | 2 | 292 | 4.8 | 4.8 | 0.00 | 0.00 | 0.00 | 92 | 852.2 |